Terminal Aerodrome Forecast
Issued by NWS Quad Cities IA IL

Home | Current Version | Previous Version | Text Only | Print | Product List | Glossary On
Versions: 1 2 3 4 5 6 7 8 9 10 11 12 13 14 15
000
FTUS43 KDVN 291100
TAFMLI
TAF
KMLI 291130Z 2912/3012 28004KT P6SM SCT040 SCT250
      TEMPO 2912/2913 4SM BR
     FM300600 06008KT P6SM BKN025=

USA.gov is the U.S. government's official web portal to all federal, state and local government web resources and services.